Regional Weather Roundup
Issued by NWS

Home | Current Version | Previous Version | Graphics & Text | Print | Product List | Glossary On
Versions: 1 2 3 4 5 6 7 8 9 10 11 12 13 14 15 16 17 18 19 20 21 22 23 24 25 26 27 28 29 30 31 32 33 34 35 36 37 38 39 40 41 42 43 44 45 46 47 48 49 50
000
ASUS44 KMEG 232210
RWRTN
TENNESSEE HOURLY STATE WEATHER ROUNDUP
NATIONAL WEATHER SERVICE MEMPHIS TN
500 PM CDT WED AUG 23 2017

TNZ002-004-019-021-049-052-054-088>092-232300-
WEST TENNESSEE

CITY           SKY/WX    TMP DP  RH WIND       PRES   REMARKS
MEMPHIS INTL   CLOUDY    81  65  58 NE10      29.98S
NWS MEMPHIS      N/A     79 N/A N/A MISG        N/A
JACKSON        PTSUNNY   81  60  48 N7        29.99F
DYERSBURG      CLOUDY    79  60  52 N10       30.00F
SOMERVILLE     SUNNY     79  64  61 N8        29.98S
COVINGTON      SUNNY     79  63  57 N9        29.99F
UNION CITY     SUNNY     79  59  50 NE9       29.99S
BOLIVAR        SUNNY     79  64  61 NW6       29.98S
PARIS          MOSUNNY   79  61  53 CALM      29.98F
HUNTINGDON     SUNNY     81  59  47 N6        29.98F
LEXINGTON      SUNNY     77  63  61 VRB6      29.98F
SELMER         SUNNY     79  64  61 N7        29.97F
SAVANNAH       SUNNY     79  64  61 N12       29.96S
$$

TNZ008-025-027-028-033-062-065-066-232300-
NORTH MIDDLE TENNESSEE

CITY           SKY/WX    TMP DP  RH WIND       PRES   REMARKS
NASHVILLE      CLOUDY    81  57  43 N13G20    29.98F
PORTLAND       MOSUNNY   77  61  57 N7        29.98F
CLARKSVILLE    PTSUNNY   79  55  43 N8        29.99F
SMYRNA         MOSUNNY   81  60  48 N9        29.98S
COOKEVILLE     SUNNY     77  59  53 NW6       29.97S
GALLATIN       SUNNY     81  57  44 NW8       30.00F
CROSSVILLE     SUNNY     78  57  48 VRB7      30.00F
$$

TNZ061-075-076-078-094-096-097-232300-
SOUTH MIDDLE TENNESSEE

CITY           SKY/WX    TMP DP  RH WIND       PRES   REMARKS
FAYETTEVILLE   MOSUNNY   82  61  47 N10       29.95F
TULLAHOMA      MOSUNNY   79  57  47 NW8       29.98S
MCMINNVILLE    SUNNY     81  61  50 N9        29.97F
COLUMBIA       MOSUNNY   79  61  53 N7        29.95F
SHELBYVILLE    SUNNY     81  61  50 N10       29.96S
$$

TNZ017-018-042-046-047-232300-
NORTHEAST TENNESSEE

CITY           SKY/WX    TMP DP  RH WIND       PRES   REMARKS
TRI CITIES     PTSUNNY   83  63  50 NW8       29.93S
ELIZABETHTON   MOSUNNY   84  63  48 VRB7      29.93S
$$

TNZ012-013-036-069-073-074-232300-
CENTRAL EAST TENNESSEE

CITY           SKY/WX    TMP DP  RH WIND       PRES   REMARKS
KNOXVILLE      PTSUNNY   82  61  48 NW6       29.91F
OAK RIDGE      PTSUNNY   85  60  42 VRB3      29.93
DOWNTOWN KNOXV MOSUNNY   84  63  48 CALM      29.90F
GATLINBURG     SUNNY     84  59  42 NW7       29.90F
MORRISTOWN     SUNNY     84  57  39 VRB7      29.92F
JACKSBORO      MOSUNNY   81  61  50 VRB7      29.98S
$$

TNZ083-085-099-232300-
SOUTHEAST TENNESSEE

CITY           SKY/WX    TMP DP  RH WIND       PRES   REMARKS
CHATTANOOGA    MOSUNNY   86  59  39 N10       29.91F
DAYTON         CLEAR     86  63  45 VRB7      29.91F
$$

SKY/WX REPORTED AS FAIR MEANS FEW OR NO CLOUDS BELOW
12 THOUSAND FEET.




USA.gov is the U.S. government's official web portal to all federal, state and local government web resources and services.